TimeCDT,TemperatureF,Dew PointF,Humidity,Sea Level PressureIn,VisibilityMPH,Wind Direction,Wind SpeedMPH,Gust SpeedMPH,PrecipitationIn,Events,Conditions,WindDirDegrees,DateUTC
12:56 AM,66.9,66.9,100,30.14,10.0,Calm,Calm,-,N/A,,Partly Cloudy,0,2013-07-07 05:56:00
1:56 AM,68.9,68.9,100,30.13,10.0,Calm,Calm,-,N/A,,Overcast,0,2013-07-07 06:56:00
2:10 AM,69.8,68.0,94,30.10,7.0,Calm,Calm,-,N/A,,Overcast,0,2013-07-07 07:10:00
2:20 AM,69.8,69.8,100,30.10,6.0,Calm,Calm,-,N/A,,Overcast,0,2013-07-07 07:20:00
2:39 AM,69.8,69.8,100,30.10,10.0,Calm,Calm,-,N/A,,Overcast,0,2013-07-07 07:39:00
2:56 AM,68.9,68.9,100,30.12,10.0,Calm,Calm,-,N/A,,Overcast,0,2013-07-07 07:56:00
3:12 AM,69.8,69.8,100,30.10,10.0,Calm,Calm,-,N/A,,Overcast,0,2013-07-07 08:12:00
3:42 AM,69.8,69.8,100,30.10,10.0,Calm,Calm,-,N/A,,Overcast,0,2013-07-07 08:42:00
3:56 AM,68.9,68.9,100,30.12,10.0,Calm,Calm,-,N/A,,Overcast,0,2013-07-07 08:56:00
4:56 AM,68.9,68.9,100,30.11,10.0,Calm,Calm,-,N/A,,Partly Cloudy,0,2013-07-07 09:56:00
5:45 AM,68.0,68.0,100,30.10,10.0,Calm,Calm,-,N/A,,Scattered Clouds,0,2013-07-07 10:45:00
5:56 AM,68.0,66.9,96,30.12,10.0,Calm,Calm,-,N/A,,Partly Cloudy,0,2013-07-07 10:56:00
6:10 AM,68.0,68.0,100,30.11,10.0,Calm,Calm,-,N/A,,Mostly Cloudy,0,2013-07-07 11:10:00
6:56 AM,70.0,70.0,100,30.15,10.0,Calm,Calm,-,N/A,,Overcast,0,2013-07-07 11:56:00
7:56 AM,72.9,70.0,91,30.16,10.0,Calm,Calm,-,N/A,,Overcast,0,2013-07-07 12:56:00
8:26 AM,73.4,69.8,88,30.15,10.0,Calm,Calm,-,N/A,,Overcast,0,2013-07-07 13:26:00
8:56 AM,75.9,70.0,82,30.17,10.0,Calm,Calm,-,N/A,,Overcast,0,2013-07-07 13:56:00
9:40 AM,78.8,69.8,74,30.15,10.0,Calm,Calm,-,N/A,,Mostly Cloudy,0,2013-07-07 14:40:00
9:56 AM,77.9,70.0,76,30.17,10.0,Calm,Calm,-,N/A,,Mostly Cloudy,0,2013-07-07 14:56:00
10:19 AM,80.6,69.8,70,30.16,10.0,Calm,Calm,-,N/A,,Scattered Clouds,0,2013-07-07 15:19:00
10:32 AM,80.6,71.6,74,30.16,10.0,NNW,4.6,-,N/A,,Mostly Cloudy,330,2013-07-07 15:32:00
10:56 AM,81.9,70.0,67,30.17,10.0,Calm,Calm,-,N/A,,Mostly Cloudy,0,2013-07-07 15:56:00
11:32 AM,82.4,69.8,66,30.15,10.0,Calm,Calm,-,N/A,,Mostly Cloudy,0,2013-07-07 16:32:00
11:56 AM,81.0,70.9,71,30.16,10.0,Calm,Calm,-,N/A,,Mostly Cloudy,0,2013-07-07 16:56:00
12:56 PM,86.0,70.9,60,30.15,10.0,NNE,6.9,-,N/A,,Clear,30,2013-07-07 17:56:00
1:56 PM,86.9,68.0,53,30.13,10.0,North,5.8,-,N/A,,Clear,360,2013-07-07 18:56:00
2:56 PM,86.9,68.9,55,30.12,10.0,SSW,3.5,-,N/A,,Scattered Clouds,210,2013-07-07 19:56:00
3:56 PM,86.9,68.0,53,30.10,10.0,Calm,Calm,-,N/A,,Clear,0,2013-07-07 20:56:00
4:56 PM,88.9,68.0,50,30.09,10.0,NNE,6.9,-,N/A,,Mostly Cloudy,30,2013-07-07 21:56:00
5:56 PM,88.0,66.9,49,30.08,10.0,Calm,Calm,-,N/A,,Clear,0,2013-07-07 22:56:00
6:56 PM,88.0,68.0,51,30.09,10.0,Calm,Calm,-,N/A,,Clear,0,2013-07-07 23:56:00
7:56 PM,81.9,70.0,67,30.11,10.0,Calm,Calm,-,N/A,,Clear,0,2013-07-08 00:56:00
8:56 PM,77.9,72.0,82,30.13,10.0,Calm,Calm,-,N/A,,Clear,0,2013-07-08 01:56:00
9:56 PM,77.0,72.0,84,30.15,10.0,Calm,Calm,-,N/A,,Mostly Cloudy,0,2013-07-08 02:56:00
10:56 PM,77.9,72.0,82,30.15,10.0,Calm,Calm,-,N/A,,Scattered Clouds,0,2013-07-08 03:56:00
11:56 PM,77.0,72.0,84,30.15,10.0,Calm,Calm,-,N/A,,Mostly Cloudy,0,2013-07-08 04:56:00